sat.trackr.live / text

‹ back to catalog

SHIYAN-10 02 (SY-10 02)

NORAD 54878 · 2022-178A

PAYLOAD ACTIVE UNKNOWN

§ Identity

Operator
Country
PRC
Launch date
2022-12-29
Launch site
XICLF
Launch vehicle
Mass (kg)
RCS (m²)

External: N2YO · Heavens-Above · Gunter

§ Orbital elements

Epoch: 2026-05-22T05:30:41.141376Z

Period
717.62 min
Inclination
64.0309°
Eccentricity
0.6942037
Mean motion
2.00663671 rev/d
Perigee alt
1,741.2 km
Apogee alt
38,605.5 km
Semi-major
26,551.5 km
B*
0.0000e+0
RAAN
323.6209°
Arg perigee
267.9971°
Mean anomaly
18.1119°
Rev number
1,603

§ Raw data

SHIYAN-10 02 (SY-10 02)1 54878U 22178A   26142.22964284  .00000778  00000+0  00000+0 0  99942 54878  64.0309 323.6209 6942037 267.9971  18.1119  2.00663671 16035

JSON: /api/v1/satellites/54878 · /tle

For live sub-satellite position, see the globe view (requires WebGL).

§ Visibility from observer

Set your observer location to see the next 7 days of passes ≥ 10°. The values pass through the URL so the page stays shareable.

No JS? Fill the form by hand. The geolocation button needs JavaScript.